McConnell AFB, KS

3:08 AM CDT on October 17, 2017 (GMT -0500)
McConnell Air Force Base

Weather History for KIAB - October, 2012

Change the Weather History Date:

Saturday, October 20, 2012

  Actual Average Record
Temperature  
Mean Temperature 64 °F -  
Max Temperature 81 °F 66 °F 87 °F (2003)
Min Temperature 47 °F 46 °F 30 °F (2011)
Degree Days  
Heating Degree Days 2    
Growing Degree Days 14 (Base 50)    
Moisture  
Dew Point 38 °F    
Average Humidity 42    
Maximum Humidity 64    
Minimum Humidity 26    
Precipitation  
Precipitation 0.00 in - - ()
Sea Level Pressure  
Sea Level Pressure 29.75 in    
Wind  
Wind Speed 6 mph (SSE)    
Max Wind Speed 12 mph    
Max Gust Speed -    
Visibility 10 miles    
Events      
Averages and records for this station are not official NWS values.
T = Trace of Precipitation, MM = Missing Value Source: NWS Daily Summary

Daily Weather History Graph

Daily Weather History Graph

Search for Another Location

Airport or City:

Trip Planner

Search our weather history database for the weather conditions in past years. The results will help you decide how hot, cold, wet, or windy it might be!

Date:

Astronomy

Oct. 20, 2012 Rise Set
Actual Time 7:42 AM CDT 6:44 PM CDT
Civil Twilight 7:16 AM CDT 7:10 PM CDT
Nautical Twilight 6:45 AM CDT 7:41 PM CDT
Astronomical Twilight 6:15 AM CDT 8:11 PM CDT
Moon 1:16 PM CDT (10/20) 11:34 PM CDT (10/20)
Length of Visible Light 11h 54m
Length of Day
11h 01m
Waxing Crescent, 34% of the Moon is Illuminated
Oct 20
Waxing Crescent
Oct 21
First Quarter
Oct 29
Full
Nov 6
Last Quarter
Nov 13
New

Hourly Weather History & Observations

Time (CDT) Temp. Dew Point Humidity Pressure Visibility Wind Dir Wind Speed Gust Speed Precip Events Conditions
12:55 AM 49.8 °F 27.7 °F 42% 29.84 in 10.0 mi Calm Calm - N/A   Clear
1:55 AM 47.5 °F 29.1 °F 49% 29.84 in 10.0 mi SE 5.8 mph - N/A   Clear
2:55 AM 47.5 °F 30.2 °F 51% 29.83 in 10.0 mi South 4.6 mph - N/A   Clear
3:55 AM 47.8 °F 28.8 °F 48% 29.81 in 10.0 mi SSE 5.8 mph - N/A   Clear
4:55 AM 48.9 °F 28.0 °F 44% 29.78 in 10.0 mi SE 5.8 mph - N/A   Clear
5:55 AM 48.4 °F 27.9 °F 45% 29.78 in 10.0 mi SE 6.9 mph - N/A   Clear
6:55 AM 48.2 °F 27.7 °F 45% 29.78 in 10.0 mi SE 3.5 mph - N/A   Clear
7:55 AM 47.5 °F 28.6 °F 48% 29.78 in 10.0 mi SSE 5.8 mph - N/A   Clear
8:55 AM 50.5 °F 30.9 °F 47% 29.79 in 10.0 mi SSE 6.9 mph - N/A   Clear
9:55 AM 57.2 °F 33.6 °F 41% 29.80 in 10.0 mi South 9.2 mph - N/A   Clear
10:55 AM 63.7 °F 35.8 °F 35% 29.79 in 10.0 mi SSW 8.1 mph - N/A   Clear
11:55 AM 67.3 °F 37.4 °F 33% 29.78 in 10.0 mi Variable 6.9 mph - N/A   Clear
12:55 PM 71.2 °F 38.7 °F 31% 29.77 in 10.0 mi WSW 8.1 mph - N/A   Clear
1:55 PM 75.2 °F 41.0 °F 29% 29.73 in 10.0 mi SW 6.9 mph - N/A   Clear
2:55 PM 78.6 °F 42.4 °F 28% 29.70 in 10.0 mi South 5.8 mph - N/A   Clear
3:55 PM 80.4 °F 43.9 °F 27% 29.68 in 10.0 mi South 10.4 mph - N/A   Clear
4:55 PM 80.4 °F 42.6 °F 26% 29.67 in 10.0 mi SSW 11.5 mph - N/A   Clear
5:55 PM 78.6 °F 44.4 °F 30% 29.67 in 10.0 mi SSW 10.4 mph - N/A   Clear
6:55 PM 72.1 °F 47.5 °F 41% 29.67 in 10.0 mi SSE 5.8 mph - N/A   Clear
7:55 PM 69.6 °F 46.8 °F 44% 29.69 in 10.0 mi SE 6.9 mph - N/A   Clear
8:55 PM 66.4 °F 48.7 °F 53% 29.71 in 10.0 mi SSE 8.1 mph - N/A   Clear
9:55 PM 66.6 °F 49.8 °F 55% 29.72 in 10.0 mi SSE 6.9 mph - N/A   Clear
10:55 PM 63.9 °F 50.0 °F 61% 29.72 in 10.0 mi SSE 8.1 mph - N/A   Clear
11:55 PM 63.1 °F 50.7 °F 64% 29.72 in 10.0 mi SSE 5.8 mph - N/A   Clear